Location: Godiavel Galaoual
(15.2485°N, 12.6604°W)
Time: 13:26:30
(UTC+00:00)

A-11 Canister half - Visible Passes

Search period start: 22 June 2021 00:00
Search period end: 02 July 2021 00:00
Orbit: 1527 x 1681 km, 47.3° (Epoch: 21 June)

Date Brightness Start Highest point End Pass type
(mag) Time Alt. Az. Time Alt. Az. Time Alt. Az.
22 Jun 11.0 05:11:25 10° NNW 05:19:07 28° NE 05:26:56 10° E visible
22 Jun 9.0 20:15:12 10° SSW 20:24:55 68° SE 20:34:18 10° NE visible
22 Jun 10.5 22:22:09 10° W 22:30:13 30° NW 22:38:08 10° NNE visible
23 Jun 11.0 04:49:54 10° NNW 04:57:24 26° NE 05:04:59 10° E visible
23 Jun 9.0 19:53:36 10° SSW 20:03:16 64° SE 20:12:37 10° NE visible
23 Jun 10.5 22:00:13 10° W 22:08:29 32° NW 22:16:36 10° NNE visible
24 Jun 11.0 04:28:24 10° NNW 04:35:40 25° NE 04:43:01 10° E visible
24 Jun 9.1 19:31:58 10° SSW 19:41:37 60° SE 19:50:56 10° NE visible
24 Jun 10.4 21:38:18 10° WSW 21:46:47 34° NW 21:55:05 10° NNE visible
25 Jun 11.0 04:06:54 10° NNW 04:13:56 23° NE 04:21:00 10° E visible
25 Jun 10.4 21:16:24 10° WSW 21:25:04 36° NW 21:33:32 10° NNE visible
26 Jun 11.0 03:45:25 10° NNW 03:52:11 22° NE 03:59:00 10° E visible
26 Jun 9.1 05:48:29 10° NW 05:57:52 89° NE 06:07:31 10° SE visible
26 Jun 10.4 20:54:31 10° WSW 21:03:21 38° NW 21:11:59 10° NNE visible
27 Jun 11.0 03:23:55 10° N 03:30:26 20° NE 03:36:58 10° E visible
27 Jun 9.1 05:26:51 10° NW 05:36:13 84° NE 05:45:50 10° SE visible
27 Jun 10.3 20:32:38 10° WSW 20:41:39 41° NW 20:50:26 10° NNE visible
28 Jun 11.1 03:02:28 10° N 03:08:40 19° NNE 03:14:54 10° ENE visible
28 Jun 9.1 05:05:13 10° NW 05:14:35 79° NE 05:24:08 10° SE visible
28 Jun 10.3 20:10:47 10° WSW 20:19:57 44° NW 20:28:52 10° NNE visible
28 Jun 11.6 22:25:09 10° NW 22:27:08 11° NNW 22:29:08 10° NNW visible
29 Jun 11.1 02:41:00 10° N 02:46:54 18° NNE 02:52:48 10° ENE visible
29 Jun 9.2 04:43:36 10° NW 04:52:55 74° NE 05:02:26 10° SE visible
29 Jun 10.2 19:48:56 10° WSW 19:58:15 47° NW 20:07:18 10° NNE visible
29 Jun 11.5 22:02:25 10° NW 22:05:18 11° NNW 22:08:09 10° N visible
30 Jun 11.1 02:19:33 10° N 02:25:07 17° NNE 02:30:42 10° ENE visible
30 Jun 9.2 04:21:59 10° NW 04:31:15 70° NE 04:40:43 10° SE visible
30 Jun 11.5 21:39:56 10° NW 21:43:28 12° NNW 21:46:59 10° N visible
01 Jul 11.1 01:58:07 10° N 02:03:21 16° NNE 02:08:33 10° ENE visible
01 Jul 9.2 04:00:23 10° NW 04:09:36 66° NE 04:18:59 10° SE visible
01 Jul 11.5 21:17:32 10° NW 21:21:38 13° NNW 21:25:43 10° N visible
